Terug naar catalogus

STARLINK-3233

ActiefCommunicatieVLEO
NORAD 49746·PAYLOAD·🇺🇸 United States

Gelanceerd Dec 2, 2021 vanaf Cape Canaveral Space Force Station

Loading…

Volgende Passages (komende 24 uur)

TLE

VersSource: CelesTrak SupGP

Epoch: Sep 15, 2026, 02:17 UTC

1 49746C 21115Y   26258.09562500  .00014558  00000+0  41750-3 0  2580
2 49746  53.1609  13.0228 0001522  81.4274  87.7704 15.35316539    13

Volg STARLINK-3233 in realtime met AllMySat

Download on the App Store